Location: Namasale
(1.5000°N, 32.6167°E)
Time: 17:47:42
(UTC+00:00)

Vanguard 1 Rocket - Pass Details

Date: 22 April 2021
Orbit: 652 x 4224 km, 34.3° (Epoch: 09 May)

Event Time Altitude Azimuth Distance (km) Brightness Sun altitude
Rises 22:32:34 0° 250° (WSW) 6,034 - -72.1°
Reaches altitude 10° 22:37:50 10° 234° (SW) 5,609 - -71.3°
Maximum altitude 22:50:38 21° 190° (S) 5,767 - -69.1°
Exits shadow 23:01:42 16° 159° (SSE) 6,758 11.6 -66.9°
Drops below altitude 10° 23:07:37 10° 147° (SSE) 7,405 11.9 -65.8°
Sets 23:16:46 0° 133° (SE) 8,432 12.4 -63.9°
